Regional Weather Roundup
Issued by NWS

Home | Current Version | Previous Version | Text Only | Print | Product List | Glossary On
Versions: 1 2 3 4 5 6 7 8 9 10 11 12 13 14 15 16 17 18 19 20 21 22 23 24 25 26 27
000
ASUS46 KPQR 250410
RWROR

OREGON REGIONAL WEATHER ROUNDUP
NATIONAL WEATHER SERVICE PORTLAND OR
900 PM PDT MON APR 24 2017

NOTE: "FAIR" INDICATES FEW OR NO CLOUDS BELOW 12,000 FEET WITH
NO SIGNIFICANT WEATHER AND/OR OBSTRUCTIONS TO VISIBILITY.

ORZ001>013-250500-
NORTHWEST OREGON


CITY           SKY/WX    TMP DP  RH WIND       PRES   REMARKS
ASTORIA        MOCLDY    48  42  80 SW3       29.94R
NEWPORT        CLOUDY    48  45  87 W6        30.02R
PORTLAND       LGT RAIN  49  46  90 N5        29.94R
VANCOUVER WA   LGT RAIN  50  48  93 NE3       29.94R
SCAPPOOSE      CLOUDY    49  47  93 CALM      29.93R
HILLSBORO      CLOUDY    50  43  77 W7        29.93R
AURORA         MOCLDY    50  42  74 SW6       29.95R
MCMINNVILLE    MOCLDY    48  42  80 SW9       29.96R
SALEM          LGT RAIN  48  43  82 W8        29.96R
CORVALLIS      CLOUDY    48  45  87 CALM      29.98R
EUGENE         CLOUDY    48  47  96 SW6       30.00R
$$

ORZ021-028-250500-
SOUTHWEST OREGON


CITY           SKY/WX    TMP DP  RH WIND       PRES   REMARKS
NORTH BEND     CLOUDY    50  46  87 W8        30.04R
BROOKINGS      CLOUDY    49  47  93 VRB3      30.07R
ROSEBURG       MOCLDY    50  43  77 N3        30.02R
SEXTON SUMMIT  CLOUDY    36  35  96 VRB3      29.98R
MEDFORD        CLOUDY    50  42  74 W3        30.00R
$$

ORZ014>016-041-250500-
COLUMBIA GORGE


CITY           SKY/WX    TMP DP  RH WIND       PRES   REMARKS
TROUTDALE      LGT RAIN  50  47  89 CALM      29.94R
HOOD RIVER     CLOUDY    46  39  76 NE6       29.87R
THE DALLES     PTCLDY    48  40  73 NW7       29.84R
$$

ORZ029>031-041-044-049-050-061>064-502-503-505>511-250500-
EASTERN OREGON


CITY           SKY/WX    TMP DP  RH WIND       PRES   REMARKS
REDMOND        PTCLDY    40  32  73 NW12      29.88R WCI  33
BEND           PTCLDY    39  32  75 N6G12     29.87R WCI  35
PRINEVILLE     MIX PCPN  41  34  75 W15G22    29.87R
KLAMATH FALLS  PTCLDY    40  32  73 W14       29.93R WCI  32
LAKEVIEW       CLOUDY    39  28  65 SW12      29.89R WCI  32
HERMISTON      CLOUDY    51  49  92 SW9       29.78R
PENDLETON      LGT RAIN  47  46  97 SW5       29.77R
JOHN DAY       CLOUDY    40  37  92 W8        29.82R WCI  34
MEACHAM        RAIN      38  33  82 CALM      29.76R
LA GRANDE      CLOUDY    45  39  81 NW6       29.76R
BAKER CITY     CLOUDY    43  36  76 SW5       29.75R
BURNS          CLOUDY    37  34  89 W12       29.82R WCI  29
ROME             N/A     41  37  86 W5        29.81R
ONTARIO        CLOUDY    50  41  71 W10       29.76R
$$




USA.gov is the U.S. government's official web portal to all federal, state and local government web resources and services.